FW3187 Weather Reports


time (UTC)temp
F
wind
direction
speed
knots
gust
knots
rain 1hr
in
rain 24hr
in
rain mn
in
humidity
%
barometer
mb
20260505022617 63 51 12.2 18.2 0.00 0.00 0.00 25 1005.0
20260505022550 63 28 15.6 18.2 0.00 0.00 0.00 25 1005.4
20260505022117 63 49 13.0 20.0 0.00 0.00 0.00 26 1005.0
20260505021959 63 49 12.2 20.0 0.00 0.00 0.00 26 1005.3
20260505021617 63 50 12.2 20.0 0.00 0.00 0.00 26 1005.0
20260505021520 63 27 14.8 20.0 0.00 0.00 0.00 26 1005.3
20260505021117 64 50 12.2 20.0 0.00 0.00 0.00 26 1005.1
20260505021036 63 65 11.3 20.0 0.00 0.00 0.00 26 1005.3
20260505020617 64 48 13.0 23.5 0.00 0.00 0.00 25 1005.1
20260505020556 64 53 10.4 20.9 0.00 0.00 0.00 25 1005.2
20260505020117 64 45 13.9 23.5 0.00 0.00 0.00 25 1005.1
20260505020007 64 45 13.9 23.5 0.00 0.00 0.00 25 1005.4
20260505015617 64 43 13.9 22.6 0.00 0.00 0.00 25 1004.9
20260505015522 64 62 16.5 21.7 0.00 0.00 0.00 25 1005.3
20260505015117 64 44 13.0 21.7 0.00 0.00 0.00 25 1004.9
20260505015043 64 53 21.7 21.7 0.00 0.00 0.00 25 1005.3
20260505014617 65 41 13.9 22.6 0.00 0.00 0.00 25 1004.9
20260505014604 64 70 12.2 22.6 0.00 0.00 0.00 25 1005.1
20260505014117 65 37 14.8 23.5 0.00 0.00 0.00 24 1004.9
20260505014009 65 45 16.5 25.2 0.00 0.00 0.00 24 1005.1
20260505013617 66 34 13.9 23.5 0.00 0.00 0.00 23 1004.9
20260505013117 67 26 14.8 23.5 0.00 0.00 0.00 22 1004.9
20260505013034 67 28 17.4 23.5 0.00 0.00 0.00 21 1005.2
20260505012617 69 15 13.0 23.5 0.00 0.00 0.00 19 1005.1
20260505012552 69 34 12.2 23.5 0.00 0.00 0.00 19 1005.2
20260505012117 70 7 9.6 17.4 0.00 0.00 0.00 17 1005.1
20260505012001 70 9 10.4 17.4 0.00 0.00 0.00 17 1005.3
20260505011617 71 2 7.0 12.2 0.00 0.00 0.00 16 1005.1
20260505011521 71 9 7.8 11.3 0.00 0.00 0.00 16 1005.1
20260505011117 72 341 7.0 11.3 0.00 0.00 0.00 16 1005.0
20260505011037 72 360 4.3 11.3 0.00 0.00 0.00 16 1005.3
20260505010617 74 317 6.1 11.3 0.00 0.00 0.00 14 1005.0
20260505010556 74 360 9.6 11.3 0.00 0.00 0.00 13 1005.3
20260505010138 75 292 4.3 8.7 0.00 0.00 0.00 10 1005.0
20260505010008 75 319 3.5 8.7 0.00 0.00 0.00 9 1005.3
20260505005617 76 295 3.5 8.7 0.00 0.00 0.00 8 1004.9
20260505005522 76 304 8.7 8.7 0.00 0.00 0.00 10 1005.3
20260505005117 76 312 4.3 9.6 0.00 0.00 0.00 8 1004.9
20260505005044 76 269 3.5 9.6 0.00 0.00 0.00 8 1005.3
20260505004638 76 306 5.2 9.6 0.00 0.00 0.00 11 1004.9
20260505004606 76 317 4.3 9.6 0.00 0.00 0.00 11 1005.3
20260505004117 76 320 4.3 9.6 0.00 0.00 0.00 10 1005.0
20260505004013 75 284 6.1 9.6 0.00 0.00 0.00 9 1005.3
20260505003617 76 326 5.2 10.4 0.00 0.00 0.00 11 1005.1
20260505003536 75 338 5.2 10.4 0.00 0.00 0.00 10 1005.3
20260505003117 76 305 5.2 10.4 0.00 0.00 0.00 12 1005.1
20260505003059 76 318 3.5 10.4 0.00 0.00 0.00 12 1005.3
20260505002638 76 300 6.1 13.9 0.00 0.00 0.00 11 1005.1
20260505002507 75 286 7.0 13.9 0.00 0.00 0.00 9 1005.3
20260505002138 76 306 6.1 13.9 0.00 0.00 0.00 9 1005.1
20260505002026 76 319 8.7 13.9 0.00 0.00 0.00 9 1005.5
20260505001638 76 302 3.5 8.7 0.00 0.00 0.00 11 1005.1
20260505001550 76 328 7.0 8.7 0.00 0.00 0.00 12 1005.5
20260505001117 76 271 4.3 8.7 0.00 0.00 0.00 8 1005.3
20260505001001 76 282 3.5 8.7 0.00 0.00 0.00 8 1005.5
20260505000638 76 263 4.3 9.6 0.00 0.00 0.00 8 1005.3
20260505000517 76 266 1.7 9.6 0.00 0.00 0.00 8 1005.4
20260505000117 77 271 4.3 9.6 0.00 0.00 0.00 8 1005.3
20260505000035 76 269 5.2 7.8 0.00 0.00 0.00 9 1005.4
20260504235617 77 290 3.5 7.8 0.00 0.00 0.00 9 1005.3
20260504235117 77 301 3.5 7.8 0.00 0.00 0.00 9 1005.3
20260504235051 76 277 1.7 7.8 0.00 0.00 0.00 9 1005.6
20260504234617 76 313 4.3 9.6 0.00 0.00 0.00 11 1005.3
20260504234502 76 311 3.5 9.6 0.00 0.00 0.00 11 1005.6
20260504234117 76 296 6.1 11.3 0.00 0.00 0.00 12 1005.2
20260504234012 76 337 5.2 11.3 0.00 0.00 0.00 11 1005.5
20260504233617 76 283 5.2 11.3 0.00 0.00 0.00 10 1005.3
20260504233514 76 283 7.8 11.3 0.00 0.00 0.00 9 1005.6
20260504233117 76 285 5.2 11.3 0.00 0.00 0.00 11 1005.3
20260504233035 76 297 7.0 10.4 0.00 0.00 0.00 10 1005.5
20260504232617 76 286 7.0 10.4 0.00 0.00 0.00 10 1005.3
20260504232553 76 277 5.2 11.3 0.00 0.00 0.00 9 1005.6
20260504232117 76 296 7.0 13.9 0.00 0.00 0.00 11 1005.3
20260504232003 76 274 7.8 13.9 0.00 0.00 0.00 10 1005.6
20260504231617 77 307 7.0 13.9 0.00 0.00 0.00 14 1005.3
20260504231525 76 333 2.6 13.9 0.00 0.00 0.00 13 1005.8
20260504231117 77 314 7.8 13.9 0.00 0.00 0.00 10 1005.4
20260504231038 76 298 10.4 13.9 0.00 0.00 0.00 10 1005.6
20260504230617 76 314 7.0 15.6 0.00 0.00 0.00 11 1005.4
20260504230558 76 326 7.0 15.6 0.00 0.00 0.00 11 1005.7
20260504230117 76 296 7.0 15.6 0.00 0.00 0.00 10 1005.4
20260504230008 76 335 9.6 13.0 0.00 0.00 0.00 9 1005.7
20260504225617 77 298 7.8 13.0 0.00 0.00 0.00 9 1005.8
20260504225524 76 275 11.3 13.0 0.00 0.00 0.00 9 1005.8
20260504225117 76 309 6.1 13.0 0.00 0.00 0.00 10 1005.8
20260504225046 76 306 7.8 13.0 0.00 0.00 0.00 11 1005.9
20260504224617 76 304 7.0 13.0 0.00 0.00 0.00 11 1005.8
20260504224608 76 284 5.2 13.0 0.00 0.00 0.00 11 1006.0
20260504224117 76 310 8.7 14.8 0.00 0.00 0.00 7 1005.6
20260504224012 76 311 8.7 14.8 0.00 0.00 0.00 8 1006.0
20260504223638 76 308 7.0 14.8 0.00 0.00 0.00 10 1005.8
20260504223540 75 279 10.4 14.8 0.00 0.00 0.00 11 1006.1
20260504223117 75 273 7.0 17.4 0.00 0.00 0.00 11 1005.8
20260504223100 75 313 7.8 17.4 0.00 0.00 0.00 11 1006.0
20260504222617 75 261 6.1 16.5 0.00 0.00 0.00 8 1006.0
20260504222504 75 279 9.6 17.4 0.00 0.00 0.00 7 1006.1
20260504222117 75 258 6.1 13.0 0.00 0.00 0.00 12 1006.0
20260504222024 75 222 4.3 13.0 0.00 0.00 0.00 11 1006.1
20260504221617 76 276 7.0 13.0 0.00 0.00 0.00 9 1006.0
20260504221546 75 258 6.1 13.0 0.00 0.00 0.00 8 1006.1
20260504221117 76 286 7.0 12.2 0.00 0.00 0.00 7 1006.0
20260504221100 75 281 2.6 12.2 0.00 0.00 0.00 7 1006.3
20260504220617 76 301 7.0 12.2 0.00 0.00 0.00 8 1006.2
20260504220511 76 288 8.7 12.2 0.00 0.00 0.00 8 1006.4
20260504220117 76 309 7.8 13.0 0.00 0.00 0.00 10 1006.2
20260504220031 76 307 8.7 13.0 0.00 0.00 0.00 11 1006.5
20260504215617 76 312 7.8 13.0 0.00 0.00 0.00 10 1006.2
20260504215544 76 345 8.7 13.0 0.00 0.00 0.00 10 1006.5
20260504215117 76 309 7.8 13.0 0.00 0.00 0.00 10 1006.5
20260504214638 76 298 7.8 13.9 0.00 0.00 0.00 13 1006.5
20260504214501 75 294 7.0 13.9 0.00 0.00 0.00 10 1006.8
20260504214138 76 290 7.0 13.9 0.00 0.00 0.00 9 1006.5
20260504214012 75 311 7.0 13.9 0.00 0.00 0.00 10 1006.8
20260504213617 76 292 7.0 13.0 0.00 0.00 0.00 11 1006.7
20260504213532 75 278 7.0 13.9 0.00 0.00 0.00 11 1006.8
20260504213138 75 298 7.0 12.2 0.00 0.00 0.00 11 1006.7
20260504213053 75 290 4.3 13.9 0.00 0.00 0.00 13 1006.9
20260504212638 75 290 7.8 12.2 0.00 0.00 0.00 12 1006.7
20260504212459 74 276 2.6 14.8 0.00 0.00 0.00 13 1007.0
20260504212117 75 289 7.8 14.8 0.00 0.00 0.00 11 1006.7
20260504212018 75 275 8.7 14.8 0.00 0.00 0.00 10 1007.0
20260504211617 75 291 8.7 15.6 0.00 0.00 0.00 11 1006.7
20260504211538 75 286 7.8 15.6 0.00 0.00 0.00 13 1006.9
20260504211138 75 292 7.8 15.6 0.00 0.00 0.00 14 1006.7
20260504211053 75 279 9.6 15.6 0.00 0.00 0.00 13 1007.0
20260504210638 75 291 7.0 12.2 0.00 0.00 0.00 15 1006.8
20260504210502 74 278 6.1 13.0 0.00 0.00 0.00 13 1007.1
20260504210117 74 276 6.1 12.2 0.00 0.00 0.00 13 1006.8
20260504210022 74 279 9.6 11.3 0.00 0.00 0.00 15 1007.1
20260504205617 74 263 7.0 13.0 0.00 0.00 0.00 16 1006.8
20260504205537 74 261 6.1 13.0 0.00 0.00 0.00 17 1007.2
20260504205117 74 269 7.0 13.0 0.00 0.00 0.00 14 1007.0
20260504205057 73 243 4.3 13.0 0.00 0.00 0.00 14 1007.2
20260504204617 74 261 7.8 13.0 0.00 0.00 0.00 15 1007.0
20260504204605 73 271 10.4 13.0 0.00 0.00 0.00 15 1007.2
20260504204117 73 257 7.8 13.0 0.00 0.00 0.00 14 1007.0
20260504204012 73 280 7.8 13.0 0.00 0.00 0.00 15 1007.5
20260504203638 74 265 6.1 12.2 0.00 0.00 0.00 16 1007.1
20260504203502 73 259 6.1 12.2 0.00 0.00 0.00 11 1007.3
20260504203117 74 265 5.2 12.2 0.00 0.00 0.00 15 1007.1
20260504203023 73 226 5.2 12.2 0.00 0.00 0.00 14 1007.4
20260504202617 73 277 7.0 12.2 0.00 0.00 0.00 13 1007.1
20260504202541 73 242 3.5 12.2 0.00 0.00 0.00 14 1007.5
20260504202117 74 277 7.0 12.2 0.00 0.00 0.00 15 1007.2
20260504202058 73 274 11.3 12.2 0.00 0.00 0.00 15 1007.5
20260504201617 73 256 5.2 11.3 0.00 0.00 0.00 16 1007.3
20260504201117 73 268 7.0 14.8 0.00 0.00 0.00 18 1007.3
20260504201000 72 277 3.5 14.8 0.00 0.00 0.00 17 1007.5
20260504200617 73 274 6.1 14.8 0.00 0.00 0.00 16 1007.6
20260504200117 73 273 6.1 12.2 0.00 0.00 0.00 18 1007.6
20260504200026 72 310 6.1 11.3 0.00 0.00 0.00 19 1007.6
20260504195617 73 281 7.0 11.3 0.00 0.00 0.00 16 1007.6
20260504195538 72 276 3.5 11.3 0.00 0.00 0.00 15 1007.8
20260504195138 73 283 6.1 11.3 0.00 0.00 0.00 19 1007.5
20260504195054 72 305 4.3 11.3 0.00 0.00 0.00 19 1007.8
20260504194617 73 270 7.0 11.3 0.00 0.00 0.00 16 1007.5
20260504194506 72 294 8.7 11.3 0.00 0.00 0.00 17 1007.9
20260504194117 73 279 6.1 11.3 0.00 0.00 0.00 18 1007.5
20260504193617 73 308 5.2 11.3 0.00 0.00 0.00 17 1007.5
20260504193521 72 308 7.0 11.3 0.00 0.00 0.00 18 1007.9
20260504193117 72 318 3.5 9.6 0.00 0.00 0.00 22 1007.5
20260504192617 72 285 3.5 9.6 0.00 0.00 0.00 20 1007.9
20260504192530 71 279 6.1 8.7 0.00 0.00 0.00 21 1008.1
20260504192117 72 303 4.3 8.7 0.00 0.00 0.00 18 1007.9
20260504192049 71 257 2.6 8.7 0.00 0.00 0.00 21 1008.2
20260504191617 71 308 4.3 12.2 0.00 0.00 0.00 22 1008.2
20260504191610 71 313 5.2 12.2 0.00 0.00 0.00 22 1008.4
20260504191117 71 311 5.2 12.2 0.00 0.00 0.00 21 1008.2
20260504190617 71 315 5.2 9.6 0.00 0.00 0.00 21 1008.2
20260504190138 71 304 6.1 11.3 0.00 0.00 0.00 21 1008.4
20260504190025 71 303 7.8 11.3 0.00 0.00 0.00 22 1008.7
20260504185638 71 300 4.3 11.3 0.00 0.00 0.00 23 1008.4
20260504185117 70 303 3.5 10.4 0.00 0.00 0.00 23 1008.4
20260504185045 70 309 9.6 9.6 0.00 0.00 0.00 24 1008.8
20260504184617 70 295 4.3 9.6 0.00 0.00 0.00 23 1008.6
20260504184605 70 317 1.7 9.6 0.00 0.00 0.00 23 1008.9
20260504184117 70 286 4.3 10.4 0.00 0.00 0.00 25 1008.6
20260504184011 70 277 3.5 10.4 0.00 0.00 0.00 24 1008.9
20260504183617 70 300 4.3 10.4 0.00 0.00 0.00 23 1008.5
20260504183517 69 276 7.8 10.4 0.00 0.00 0.00 25 1009.0
20260504183117 70 314 2.6 7.0 0.00 0.00 0.00 23 1008.6
20260504183036 69 283 0.0 7.0 0.00 0.00 0.00 23 1009.0
20260504182638 69 280 3.5 9.6 0.00 0.00 0.00 26 1008.6
20260504182552 69 317 5.2 7.0 0.00 0.00 0.00 25 1009.1
20260504182117 69 260 3.5 9.6 0.00 0.00 0.00 24 1008.6
20260504182003 68 232 3.5 9.6 0.00 0.00 0.00 24 1009.0
20260504181617 69 275 4.3 8.7 0.00 0.00 0.00 23 1008.8
20260504181523 68 242 9.6 9.6 0.00 0.00 0.00 24 1009.0
20260504181117 68 266 4.3 8.7 0.00 0.00 0.00 26 1008.8
20260504181040 68 307 3.5 8.7 0.00 0.00 0.00 25 1009.1
20260504180617 68 237 3.5 8.7 0.00 0.00 0.00 25 1008.8
20260504180602 67 294 1.7 8.7 0.00 0.00 0.00 25 1009.0
20260504180117 68 245 3.5 8.7 0.00 0.00 0.00 23 1008.9
20260504180008 67 254 4.3 7.8 0.00 0.00 0.00 25 1009.1
20260504175617 67 264 3.5 7.0 0.00 0.00 0.00 27 1008.9
20260504175525 67 288 3.5 7.8 0.00 0.00 0.00 26 1009.1
20260504175117 67 271 4.3 9.6 0.00 0.00 0.00 24 1008.9
20260504175043 67 263 3.5 9.6 0.00 0.00 0.00 25 1009.1
20260504174617 67 258 4.3 9.6 0.00 0.00 0.00 24 1009.1
20260504174605 67 309 1.7 9.6 0.00 0.00 0.00 24 1009.3
20260504174117 67 250 4.3 8.7 0.00 0.00 0.00 25 1009.1
20260504174011 67 229 4.3 8.7 0.00 0.00 0.00 24 1009.3
20260504173617 67 268 2.6 7.8 0.00 0.00 0.00 23 1009.0
20260504173458 67 252 4.3 7.8 0.00 0.00 0.00 25 1009.3
20260504173117 67 274 3.5 7.8 0.00 0.00 0.00 23 1008.8
20260504173020 66 278 5.2 7.8 0.00 0.00 0.00 22 1009.4
20260504172617 66 270 3.5 7.8 0.00 0.00 0.00 23 1008.8
20260504172536 66 287 1.7 7.8 0.00 0.00 0.00 23 1009.3
20260504172117 66 267 3.5 7.8 0.00 0.00 0.00 23 1009.1
20260504172022 66 257 1.7 7.8 0.00 0.00 0.00 22 1009.4
20260504171638 66 262 2.6 7.0 0.00 0.00 0.00 24 1009.1
20260504171540 66 306 4.3 8.7 0.00 0.00 0.00 24 1009.3
20260504171117 66 254 2.6 8.7 0.00 0.00 0.00 22 1009.1
20260504170638 66 254 2.6 8.7 0.00 0.00 0.00 23 1009.1
20260504170557 65 241 7.0 7.0 0.00 0.00 0.00 23 1009.5
20260504170117 66 238 1.7 6.1 0.00 0.00 0.00 22 1009.3
20260504160200 61 273 2.6 5.2 0.00 0.00 0.00 27 1009.6
20260504160117 61 269 1.7 5.2 0.00 0.00 0.00 27 1009.2
20260504151124 57 269 2.6 4.3 0.00 0.00 0.00 31 1009.6
20260504151117 57 281 2.6 4.3 0.00 0.00 0.00 31 1009.3
20260504150617 56 263 0.9 3.5 0.00 0.00 0.00 31 1009.3
20260504150152 54 249 1.7 2.6 0.00 0.00 0.00 32 1009.5
20260504150138 55 245 0.9 2.6 0.00 0.00 0.00 32 1009.3
20260504141206 49 313 1.7 2.6 0.00 0.00 0.00 36 1009.7
20260504141117 50 315 0.9 1.7 0.00 0.00 0.00 36 1009.4
20260504140617 50 315 0.0 2.6 0.00 0.00 0.00 36 1009.3
20260504140613 49 315 0.0 2.6 0.00 0.00 0.00 36 1009.7
20260504140135 49 314 0.9 2.6 0.00 0.00 0.00 36 1009.7
20260504140117 50 315 0.0 2.6 0.00 0.00 0.00 36 1009.3
20260504130625 47 67 2.6 4.3 0.00 0.00 0.00 33 1009.3
20260504130617 47 71 2.6 4.3 0.00 0.00 0.00 33 1008.7
20260504130145 47 69 3.5 3.5 0.00 0.00 0.00 32 1009.2
20260504130138 48 62 2.6 3.5 0.00 0.00 0.00 32 1008.7
20260504120117 50 123 0.0 1.7 0.00 0.00 0.00 31 1008.7
20260504110628 49 102 2.6 5.2 0.00 0.00 0.00 35 1009.3
20260504110617 49 136 3.5 5.2 0.00 0.00 0.00 35 1009.1
20260504110146 48 138 4.3 4.3 0.00 0.00 0.00 35 1009.5
20260504110117 49 151 3.5 5.2 0.00 0.00 0.00 35 1009.0
20260504100604 48 159 0.9 2.6 0.00 0.00 0.00 34 1009.3
20260504100117 49 164 2.6 4.3 0.00 0.00 0.00 34 1009.1
20260504090117 56 258 0.9 2.6 0.00 0.00 0.00 23 1008.6
20260504081617 60 98 7.0 8.7 0.00 0.00 0.00 17 1008.7
20260504081603 60 90 5.2 8.7 0.00 0.00 0.00 17 1009.1
20260504081117 61 104 7.0 8.7 0.00 0.00 0.00 16 1008.7
20260504081008 60 98 6.1 8.7 0.00 0.00 0.00 16 1009.0
20260504080617 61 106 7.0 8.7 0.00 0.00 0.00 16 1008.7
20260504080117 61 108 7.0 9.6 0.00 0.00 0.00 17 1008.7
20260504070117 61 107 8.7 12.2 0.00 0.00 0.00 17 1008.8
20260504060117 61 103 8.7 11.3 0.00 0.00 0.00 18 1009.3
20260504050638 62 101 8.7 11.3 0.00 0.00 0.00 18 1009.7
20260504050117 62 104 8.7 11.3 0.00 0.00 0.00 17 1009.7
20260504050012 62 97 9.6 11.3 0.00 0.00 0.00 17 1010.0
20260504045617 62 105 9.6 12.2 0.00 0.00 0.00 16 1009.7
20260504045527 62 115 11.3 12.2 0.00 0.00 0.00 16 1010.1
20260504045117 63 101 9.6 12.2 0.00 0.00 0.00 16 1009.8
20260504045046 62 101 8.7 12.2 0.00 0.00 0.00 16 1010.0
20260504044617 63 98 9.6 12.2 0.00 0.00 0.00 16 1009.8
20260504044605 62 94 10.4 12.2 0.00 0.00 0.00 16 1010.0
20260504044138 63 99 8.7 11.3 0.00 0.00 0.00 16 1009.8
20260504044011 62 95 9.6 11.3 0.00 0.00 0.00 16 1010.1
20260504043617 63 100 8.7 12.2 0.00 0.00 0.00 16 1009.7
20260504043501 62 115 8.7 12.2 0.00 0.00 0.00 16 1009.8
20260504043117 63 100 9.6 13.0 0.00 0.00 0.00 16 1009.7
20260504043023 62 88 9.6 13.0 0.00 0.00 0.00 15 1010.0
20260504042617 63 103 9.6 13.0 0.00 0.00 0.00 16 1009.7
20260504042539 63 102 10.4 13.0 0.00 0.00 0.00 15 1009.9
20260504042117 63 105 8.7 11.3 0.00 0.00 0.00 15 1009.7
20260504042056 63 115 10.4 11.3 0.00 0.00 0.00 15 1009.9
20260504041638 64 103 8.7 11.3 0.00 0.00 0.00 15 1009.7
20260504041507 63 96 7.0 11.3 0.00 0.00 0.00 15 1010.1
20260504041117 64 104 8.7 11.3 0.00 0.00 0.00 14 1009.7
20260504041025 63 89 7.0 10.4 0.00 0.00 0.00 15 1009.8
20260504040617 64 104 8.7 11.3 0.00 0.00 0.00 15 1009.7
20260504040545 63 108 7.0 11.3 0.00 0.00 0.00 15 1009.9
20260504040117 63 101 8.7 11.3 0.00 0.00 0.00 15 1009.7
20260504040106 63 94 7.8 11.3 0.00 0.00 0.00 15 1009.8
20260504035638 64 101 7.8 10.4 0.00 0.00 0.00 15 1009.7
20260504035512 63 103 8.7 10.4 0.00 0.00 0.00 15 1010.0
20260504035117 64 105 7.8 11.3 0.00 0.00 0.00 15 1009.7
20260504035030 63 88 8.7 11.3 0.00 0.00 0.00 15 1010.0
20260504034617 64 107 8.7 11.3 0.00 0.00 0.00 15 1009.6
20260504034605 63 96 9.6 11.3 0.00 0.00 0.00 15 1010.1
20260504034138 64 106 7.8 10.4 0.00 0.00 0.00 15 1009.6
20260504034012 63 113 9.6 10.4 0.00 0.00 0.00 16 1010.0
20260504033617 64 104 7.8 10.4 0.00 0.00 0.00 16 1009.7
20260504033513 63 109 7.8 10.4 0.00 0.00 0.00 16 1009.8
20260504033138 64 102 7.8 10.4 0.00 0.00 0.00 16 1009.7
20260504032617 64 102 7.8 10.4 0.00 0.00 0.00 15 1009.5
20260504032518 64 98 8.7 10.4 0.00 0.00 0.00 15 1009.8
20260504032117 65 103 7.8 10.4 0.00 0.00 0.00 15 1009.2
20260504031617 65 106 8.7 10.4 0.00 0.00 0.00 15 1009.2
20260504031542 64 114 8.7 10.4 0.00 0.00 0.00 15 1009.7
20260504031117 65 107 7.8 10.4 0.00 0.00 0.00 15 1009.2
20260504031058 65 102 7.0 10.4 0.00 0.00 0.00 15 1009.7
20260504030617 65 107 7.8 10.4 0.00 0.00 0.00 15 1009.1
20260504030508 65 111 6.1 10.4 0.00 0.00 0.00 15 1009.6
20260504030117 65 106 7.8 10.4 0.00 0.00 0.00 14 1009.1
20260504030027 65 100 8.7 10.4 0.00 0.00 0.00 14 1009.7
20260504025617 66 105 8.7 10.4 0.00 0.00 0.00 15 1009.1
20260504025543 65 121 7.8 10.4 0.00 0.00 0.00 14 1009.6
20260504025138 66 106 8.7 11.3 0.00 0.00 0.00 14 1009.1
20260504025102 66 98 8.7 11.3 0.00 0.00 0.00 14 1009.5
20260504024638 66 107 8.7 11.3 0.00 0.00 0.00 14 1009.3
20260504024512 66 129 7.0 11.3 0.00 0.00 0.00 14 1009.4
20260504024117 66 107 9.6 12.2 0.00 0.00 0.00 14 1009.3
20260504023617 67 108 8.7 12.2 0.00 0.00 0.00 14 1009.4
20260504023117 67 106 7.8 11.3 0.00 0.00 0.00 13 1009.4